| time (UTC) | temp F | wind direction | speed knots | gust knots | rain 1hr in | rain 24hr in | rain mn in | humidity % | barometer mb |
| 20260504214238 | 68 | 49 | 0.9 | 0.9 | 0.00 | 0.00 | 0.00 | 36 | 1005.8 |
| 20260504213736 | 69 | 154 | 2.6 | 4.3 | 0.00 | 0.00 | 0.00 | 36 | 1006.1 |
| 20260504213232 | 69 | 204 | 2.6 | 2.6 | 0.00 | 0.00 | 0.00 | 36 | 1005.6 |
| 20260504212729 | 68 | 250 | 4.3 | 5.2 | 0.00 | 0.00 | 0.00 | 36 | 1005.8 |
| 20260504212226 | 68 | 329 | 1.7 | 2.6 | 0.00 | 0.00 | 0.00 | 38 | 1005.9 |
| 20260504211723 | 68 | 229 | 2.6 | 4.3 | 0.00 | 0.00 | 0.00 | 38 | 1005.9 |
| 20260504211219 | 68 | 126 | 2.6 | 4.3 | 0.00 | 0.00 | 0.00 | 38 | 1005.8 |
| 20260504210717 | 68 | 139 | 2.6 | 2.6 | 0.00 | 0.00 | 0.00 | 37 | 1005.7 |
| 20260504210214 | 69 | 295 | 1.7 | 1.7 | 0.00 | 0.00 | 0.00 | 35 | 1005.8 |
| 20260504205711 | 69 | 166 | 3.5 | 4.3 | 0.00 | 0.00 | 0.00 | 36 | 1005.8 |
| 20260504205208 | 69 | 199 | 2.6 | 2.6 | 0.00 | 0.00 | 0.00 | 36 | 1005.8 |
| 20260504204707 | 68 | 218 | 2.6 | 2.6 | 0.00 | 0.00 | 0.00 | 36 | 1005.9 |
| 20260504204205 | 69 | 180 | 2.6 | 2.6 | 0.00 | 0.00 | 0.00 | 36 | 1005.7 |
| 20260504203703 | 70 | 187 | 3.5 | 5.2 | 0.00 | 0.00 | 0.00 | 35 | 1005.9 |
| 20260504203201 | 69 | 323 | 1.7 | 1.7 | 0.00 | 0.00 | 0.00 | 35 | 1005.9 |
| 20260504202700 | 69 | 191 | 2.6 | 5.2 | 0.00 | 0.00 | 0.00 | 35 | 1005.8 |
| 20260504202158 | 69 | 196 | 2.6 | 4.3 | 0.00 | 0.00 | 0.00 | 34 | 1005.8 |
| 20260504201655 | 69 | 192 | 1.7 | 2.6 | 0.00 | 0.00 | 0.00 | 35 | 1005.8 |
| 20260504201152 | 70 | 265 | 2.6 | 2.6 | 0.00 | 0.00 | 0.00 | 34 | 1005.8 |
| 20260504200650 | 71 | 163 | 5.2 | 6.1 | 0.00 | 0.00 | 0.00 | 33 | 1005.9 |
| 20260504200146 | 71 | 193 | 2.6 | 2.6 | 0.00 | 0.00 | 0.00 | 33 | 1005.8 |
| 20260504195642 | 71 | 155 | 2.6 | 2.6 | 0.00 | 0.00 | 0.00 | 35 | 1005.8 |
| 20260504195138 | 70 | 299 | 0.9 | 1.7 | 0.00 | 0.00 | 0.00 | 34 | 1005.7 |
| 20260504194635 | 69 | 182 | 1.7 | 2.6 | 0.00 | 0.00 | 0.00 | 36 | 1005.8 |
| 20260504194131 | 70 | 27 | 4.3 | 6.1 | 0.00 | 0.00 | 0.00 | 35 | 1005.7 |
| 20260504193627 | 70 | 200 | 2.6 | 4.3 | 0.00 | 0.00 | 0.00 | 34 | 1005.9 |
| 20260504193126 | 71 | 271 | 2.6 | 5.2 | 0.00 | 0.00 | 0.00 | 33 | 1006.1 |
| 20260504192624 | 71 | 222 | 3.5 | 4.3 | 0.00 | 0.00 | 0.00 | 34 | 1005.7 |
| 20260504192121 | 71 | 310 | 2.6 | 2.6 | 0.00 | 0.00 | 0.00 | 34 | 1005.9 |
| 20260504191620 | 70 | 164 | 2.6 | 5.2 | 0.00 | 0.00 | 0.00 | 35 | 1005.9 |
| 20260504191115 | 70 | 352 | 1.7 | 2.6 | 0.00 | 0.00 | 0.00 | 34 | 1005.9 |
| 20260504190612 | 70 | 84 | 2.6 | 2.6 | 0.00 | 0.00 | 0.00 | 33 | 1006.2 |
| 20260504190109 | 69 | 183 | 4.3 | 5.2 | 0.00 | 0.00 | 0.00 | 35 | 1006.0 |
| 20260504185605 | 68 | 137 | 2.6 | 2.6 | 0.00 | 0.00 | 0.00 | 35 | 1006.0 |
| 20260504185101 | 67 | 197 | 4.3 | 5.2 | 0.00 | 0.00 | 0.00 | 37 | 1006.0 |
| 20260504184557 | 68 | 225 | 3.5 | 5.2 | 0.00 | 0.00 | 0.00 | 36 | 1006.4 |
| 20260504184052 | 67 | 217 | 3.5 | 4.3 | 0.00 | 0.00 | 0.00 | 36 | 1006.3 |
| 20260504183550 | 68 | 187 | 2.6 | 5.2 | 0.00 | 0.00 | 0.00 | 35 | 1006.2 |
| 20260504183048 | 68 | 322 | 2.6 | 4.3 | 0.00 | 0.00 | 0.00 | 34 | 1006.4 |
| 20260504182545 | 69 | 95 | 5.2 | 6.1 | 0.00 | 0.00 | 0.00 | 34 | 1006.3 |
| 20260504182042 | 67 | 201 | 3.5 | 4.3 | 0.00 | 0.00 | 0.00 | 35 | 1006.2 |
| 20260504181539 | 68 | 338 | 3.5 | 5.2 | 0.00 | 0.00 | 0.00 | 34 | 1006.3 |
| 20260504181037 | 70 | 338 | 2.6 | 2.6 | 0.00 | 0.00 | 0.00 | 33 | 1006.5 |
| 20260504180536 | 70 | 48 | 3.5 | 5.2 | 0.00 | 0.00 | 0.00 | 33 | 1006.3 |
| 20260504180034 | 69 | 226 | 3.5 | 4.3 | 0.00 | 0.00 | 0.00 | 33 | 1006.4 |
| 20260504175531 | 70 | 289 | 3.5 | 4.3 | 0.00 | 0.00 | 0.00 | 33 | 1006.3 |
| 20260504175028 | 70 | 23 | 5.2 | 8.7 | 0.00 | 0.00 | 0.00 | 32 | 1006.4 |
| 20260504174526 | 68 | 213 | 3.5 | 4.3 | 0.00 | 0.00 | 0.00 | 34 | 1006.1 |
| 20260504174022 | 69 | 234 | 2.6 | 2.6 | 0.00 | 0.00 | 0.00 | 34 | 1006.2 |
| 20260504173519 | 69 | 192 | 2.6 | 4.3 | 0.00 | 0.00 | 0.00 | 33 | 1006.4 |
| 20260504173017 | 69 | 200 | 2.6 | 5.2 | 0.00 | 0.00 | 0.00 | 34 | 1006.4 |
| 20260504172513 | 69 | 183 | 4.3 | 6.1 | 0.00 | 0.00 | 0.00 | 33 | 1006.5 |
| 20260504172009 | 69 | 228 | 2.6 | 2.6 | 0.00 | 0.00 | 0.00 | 32 | 1006.6 |
| 20260504171506 | 68 | 173 | 2.6 | 5.2 | 0.00 | 0.00 | 0.00 | 33 | 1006.5 |
| 20260504171003 | 69 | 281 | 1.7 | 2.6 | 0.00 | 0.00 | 0.00 | 33 | 1006.5 |
| 20260504170500 | 69 | 120 | 4.3 | 5.2 | 0.00 | 0.00 | 0.00 | 33 | 1006.6 |
| 20260504160419 | 66 | 193 | 3.5 | 4.3 | 0.00 | 0.00 | 0.00 | 36 | 1007.2 |
| 20260504150843 | 63 | 256 | 6.1 | 7.0 | 0.00 | 0.00 | 0.00 | 39 | 1007.8 |
| 20260504150340 | 64 | 303 | 2.6 | 2.6 | 0.00 | 0.00 | 0.00 | 38 | 1007.5 |
| 20260504141310 | 61 | 307 | 1.7 | 2.6 | 0.00 | 0.00 | 0.00 | 43 | 1008.2 |
| 20260504140806 | 60 | 322 | 0.9 | 1.7 | 0.00 | 0.00 | 0.00 | 46 | 1008.4 |
| 20260504140302 | 60 | 158 | 4.3 | 5.2 | 0.00 | 0.00 | 0.00 | 47 | 1008.5 |
| 20260504130731 | 54 | 358 | 1.7 | 1.7 | 0.00 | 0.00 | 0.00 | 54 | 1008.8 |
| 20260504130226 | 55 | 347 | 0.0 | 0.9 | 0.00 | 0.00 | 0.00 | 51 | 1008.9 |
| 20260504120151 | 50 | 320 | 2.6 | 2.6 | 0.00 | 0.00 | 0.00 | 58 | 1009.2 |
| 20260504110618 | 46 | 344 | 0.0 | 0.0 | 0.00 | 0.00 | 0.00 | 68 | 1009.2 |
| 20260504110114 | 45 | 340 | 0.0 | 0.0 | 0.00 | 0.00 | 0.00 | 69 | 1009.2 |
| 20260504100540 | 43 | 340 | 0.9 | 0.9 | 0.00 | 0.00 | 0.00 | 70 | 1009.2 |
| 20260504081933 | 42 | 2 | 1.7 | 1.7 | 0.00 | 0.00 | 0.00 | 70 | 1009.3 |
| 20260504081430 | 42 | 315 | 0.9 | 1.7 | 0.00 | 0.00 | 0.00 | 70 | 1009.2 |
| 20260504080926 | 42 | 351 | 0.9 | 0.9 | 0.00 | 0.00 | 0.00 | 69 | 1009.2 |
| 20260504080423 | 42 | 351 | 0.0 | 0.0 | 0.00 | 0.00 | 0.00 | 69 | 1009.3 |
| 20260504070351 | 41 | 341 | 0.0 | 0.0 | 0.00 | 0.00 | 0.00 | 67 | 1009.3 |
| 20260504050738 | 38 | 344 | 0.0 | 0.0 | 0.00 | 0.00 | 0.00 | 80 | 1009.3 |
| 20260504050235 | 38 | 345 | 0.0 | 0.0 | 0.00 | 0.00 | 0.00 | 78 | 1009.3 |
| 20260504045733 | 37 | 345 | 0.0 | 0.0 | 0.00 | 0.00 | 0.00 | 77 | 1009.4 |
| 20260504045227 | 37 | 345 | 0.0 | 0.0 | 0.00 | 0.00 | 0.00 | 79 | 1009.4 |
| 20260504044725 | 37 | 345 | 0.0 | 0.0 | 0.00 | 0.00 | 0.00 | 76 | 1009.5 |
| 20260504044223 | 37 | 345 | 0.0 | 0.0 | 0.00 | 0.00 | 0.00 | 78 | 1009.4 |
| 20260504043720 | 37 | 345 | 0.0 | 0.0 | 0.00 | 0.00 | 0.00 | 76 | 1009.4 |
| 20260504043216 | 37 | 345 | 0.0 | 0.0 | 0.00 | 0.00 | 0.00 | 77 | 1009.4 |
| 20260504042714 | 37 | 345 | 0.0 | 0.0 | 0.00 | 0.00 | 0.00 | 75 | 1009.3 |
| 20260504042210 | 37 | 345 | 0.0 | 0.0 | 0.00 | 0.00 | 0.00 | 75 | 1009.5 |
| 20260504041706 | 37 | 345 | 0.0 | 0.9 | 0.00 | 0.00 | 0.00 | 75 | 1009.3 |
| 20260504041202 | 37 | 345 | 0.0 | 0.0 | 0.00 | 0.00 | 0.00 | 78 | 1009.2 |
| 20260504040659 | 37 | 343 | 0.0 | 0.0 | 0.00 | 0.00 | 0.00 | 78 | 1009.4 |
| 20260504040156 | 37 | 343 | 0.0 | 0.0 | 0.00 | 0.00 | 0.00 | 75 | 1009.3 |
| 20260504035652 | 37 | 343 | 0.0 | 0.0 | 0.00 | 0.00 | 0.00 | 77 | 1009.2 |
| 20260504035150 | 37 | 343 | 0.0 | 0.0 | 0.00 | 0.00 | 0.00 | 77 | 1009.3 |
| 20260504034647 | 37 | 343 | 0.0 | 0.0 | 0.00 | 0.00 | 0.00 | 76 | 1009.2 |
| 20260504034144 | 37 | 343 | 0.0 | 0.0 | 0.00 | 0.00 | 0.00 | 76 | 1009.5 |
| 20260504033642 | 37 | 343 | 0.0 | 0.0 | 0.00 | 0.00 | 0.00 | 76 | 1009.2 |
| 20260504033139 | 37 | 343 | 0.0 | 0.0 | 0.00 | 0.00 | 0.00 | 76 | 1009.2 |
| 20260504032635 | 38 | 343 | 0.0 | 0.0 | 0.00 | 0.00 | 0.00 | 76 | 1009.1 |
| 20260504032133 | 38 | 343 | 0.0 | 0.0 | 0.00 | 0.00 | 0.00 | 74 | 1009.1 |
| 20260504031630 | 38 | 343 | 0.0 | 0.0 | 0.00 | 0.00 | 0.00 | 75 | 1009.1 |
| 20260504031126 | 38 | 343 | 0.9 | 0.9 | 0.00 | 0.00 | 0.00 | 73 | 1009.3 |
| 20260504030623 | 38 | 343 | 0.0 | 0.0 | 0.00 | 0.00 | 0.00 | 74 | 1009.1 |
| 20260504030120 | 38 | 342 | 0.0 | 0.0 | 0.00 | 0.00 | 0.00 | 75 | 1009.1 |
| 20260504025617 | 37 | 342 | 0.0 | 0.0 | 0.00 | 0.00 | 0.00 | 76 | 1009.1 |
| 20260504025114 | 37 | 343 | 0.0 | 0.0 | 0.00 | 0.00 | 0.00 | 78 | 1009.1 |
| 20260504024611 | 37 | 343 | 0.0 | 0.0 | 0.00 | 0.00 | 0.00 | 77 | 1009.1 |
| 20260504024107 | 37 | 343 | 0.0 | 0.0 | 0.00 | 0.00 | 0.00 | 76 | 1009.2 |
| 20260504023604 | 37 | 343 | 0.0 | 0.0 | 0.00 | 0.00 | 0.00 | 78 | 1009.4 |
| 20260504023059 | 37 | 343 | 0.0 | 0.0 | 0.00 | 0.00 | 0.00 | 80 | 1008.9 |
| 20260504022556 | 36 | 343 | 0.0 | 0.0 | 0.00 | 0.00 | 0.00 | 82 | 1009.1 |
| 20260504022052 | 35 | 342 | 0.0 | 0.0 | 0.00 | 0.00 | 0.00 | 87 | 1009.1 |
| 20260504021550 | 35 | 342 | 0.0 | 0.0 | 0.00 | 0.00 | 0.00 | 88 | 1009.1 |
| 20260504021047 | 36 | 342 | 0.0 | 0.0 | 0.00 | 0.00 | 0.00 | 87 | 1009.2 |
| 20260504020544 | 36 | 342 | 0.0 | 0.0 | 0.00 | 0.00 | 0.00 | 85 | 1009.3 |
| 20260504020040 | 36 | 342 | 0.0 | 0.0 | 0.00 | 0.00 | 0.00 | 86 | 1009.0 |
| 20260504015537 | 36 | 342 | 0.0 | 0.0 | 0.00 | 0.00 | 0.00 | 86 | 1008.9 |
| 20260504015032 | 36 | 342 | 0.0 | 0.0 | 0.00 | 0.00 | 0.00 | 86 | 1008.9 |
| 20260504014529 | 36 | 342 | 0.0 | 0.0 | 0.00 | 0.00 | 0.00 | 86 | 1008.8 |
| 20260504014026 | 36 | 342 | 0.0 | 0.0 | 0.00 | 0.00 | 0.00 | 86 | 1008.9 |
| 20260504013524 | 37 | 342 | 0.9 | 0.9 | 0.00 | 0.00 | 0.00 | 84 | 1008.8 |
| 20260504013021 | 37 | 343 | 0.0 | 0.0 | 0.00 | 0.00 | 0.00 | 84 | 1008.9 |
| 20260504012518 | 37 | 343 | 0.0 | 0.0 | 0.00 | 0.00 | 0.00 | 82 | 1008.8 |
| 20260504012016 | 38 | 343 | 0.0 | 0.0 | 0.00 | 0.00 | 0.00 | 82 | 1008.8 |
| 20260504011512 | 38 | 343 | 0.0 | 0.0 | 0.00 | 0.00 | 0.00 | 79 | 1008.7 |
| 20260504011008 | 38 | 343 | 0.0 | 0.0 | 0.00 | 0.00 | 0.00 | 79 | 1008.7 |
| 20260504010504 | 38 | 343 | 0.0 | 0.0 | 0.00 | 0.00 | 0.00 | 78 | 1008.5 |
| 20260504010000 | 39 | 343 | 0.0 | 0.0 | 0.00 | 0.00 | 0.00 | 78 | 1008.6 |
| 20260504005457 | 39 | 343 | 0.0 | 0.0 | 0.00 | 0.00 | 0.00 | 76 | 1008.5 |
| 20260504004954 | 39 | 343 | 0.0 | 0.0 | 0.00 | 0.00 | 0.00 | 72 | 1008.2 |
| 20260504004452 | 40 | 343 | 0.0 | 0.0 | 0.00 | 0.00 | 0.00 | 73 | 1008.1 |
| 20260504003949 | 40 | 343 | 0.0 | 0.0 | 0.00 | 0.00 | 0.00 | 72 | 1008.5 |
| 20260504003445 | 40 | 343 | 0.0 | 0.0 | 0.00 | 0.00 | 0.00 | 69 | 1008.1 |
| 20260504002942 | 41 | 343 | 0.0 | 0.0 | 0.00 | 0.00 | 0.00 | 68 | 1008.1 |
| 20260504002439 | 41 | 343 | 0.0 | 0.0 | 0.00 | 0.00 | 0.00 | 67 | 1008.2 |
| 20260504001936 | 42 | 343 | 0.0 | 0.0 | 0.00 | 0.00 | 0.00 | 66 | 1008.1 |
| 20260504001434 | 42 | 343 | 0.0 | 0.0 | 0.00 | 0.00 | 0.00 | 67 | 1008.2 |
| 20260504000930 | 42 | 343 | 0.0 | 0.0 | 0.00 | 0.00 | 0.00 | 64 | 1008.3 |
| 20260504000427 | 42 | 343 | 0.0 | 0.0 | 0.00 | 0.00 | 0.00 | 64 | 1007.7 |
| 20260503235925 | 42 | 343 | 0.0 | 0.0 | 0.00 | 0.00 | 0.00 | 65 | 1007.7 |
| 20260503235422 | 43 | 343 | 0.0 | 0.0 | 0.00 | 0.00 | 0.00 | 68 | 1008.0 |
| 20260503234920 | 43 | 343 | 0.0 | 0.0 | 0.00 | 0.00 | 0.00 | 63 | 1007.6 |
| 20260503234417 | 44 | 343 | 0.0 | 0.0 | 0.00 | 0.00 | 0.00 | 64 | 1007.5 |
| 20260503233915 | 44 | 341 | 0.0 | 0.0 | 0.00 | 0.00 | 0.00 | 64 | 1007.6 |
| 20260503233411 | 44 | 345 | 0.0 | 0.0 | 0.00 | 0.00 | 0.00 | 63 | 1007.6 |
| 20260503232908 | 45 | 328 | 0.9 | 0.9 | 0.00 | 0.00 | 0.00 | 61 | 1007.5 |
| 20260503232405 | 45 | 342 | 0.0 | 0.0 | 0.00 | 0.00 | 0.00 | 59 | 1007.4 |
| 20260503231903 | 46 | 345 | 0.0 | 0.0 | 0.00 | 0.00 | 0.00 | 57 | 1007.4 |
| 20260503231400 | 46 | 319 | 0.9 | 1.7 | 0.00 | 0.00 | 0.00 | 58 | 1007.4 |
| 20260503230855 | 46 | 343 | 0.0 | 0.9 | 0.00 | 0.00 | 0.00 | 58 | 1007.6 |
| 20260503230352 | 47 | 357 | 0.0 | 0.0 | 0.00 | 0.00 | 0.00 | 55 | 1007.3 |
| 20260503225850 | 47 | 342 | 1.7 | 1.7 | 0.00 | 0.00 | 0.00 | 51 | 1007.4 |
| 20260503225346 | 47 | 319 | 0.9 | 1.7 | 0.00 | 0.00 | 0.00 | 53 | 1007.3 |
| 20260503224842 | 47 | 329 | 0.9 | 0.9 | 0.00 | 0.00 | 0.00 | 52 | 1007.2 |
| 20260503224340 | 48 | 289 | 1.7 | 1.7 | 0.00 | 0.00 | 0.00 | 52 | 1007.2 |
| 20260503223837 | 48 | 158 | 3.5 | 4.3 | 0.00 | 0.00 | 0.00 | 48 | 1007.3 |
| 20260503223335 | 48 | 336 | 0.9 | 0.9 | 0.00 | 0.00 | 0.00 | 50 | 1007.0 |
| 20260503222830 | 48 | 316 | 0.9 | 1.7 | 0.00 | 0.00 | 0.00 | 50 | 1006.8 |
| 20260503222329 | 48 | 336 | 0.9 | 0.9 | 0.00 | 0.00 | 0.00 | 51 | 1007.2 |
| 20260503221826 | 48 | 262 | 2.6 | 2.6 | 0.00 | 0.00 | 0.00 | 50 | 1007.0 |
| 20260503221325 | 48 | 315 | 1.7 | 1.7 | 0.00 | 0.00 | 0.00 | 52 | 1007.0 |
| 20260503220821 | 48 | 335 | 0.9 | 0.9 | 0.00 | 0.00 | 0.00 | 50 | 1006.9 |
| 20260503220318 | 48 | 294 | 3.5 | 4.3 | 0.00 | 0.00 | 0.00 | 48 | 1006.8 |
| 20260503215814 | 48 | 316 | 2.6 | 2.6 | 0.00 | 0.00 | 0.00 | 48 | 1006.8 |
| 20260503215312 | 49 | 328 | 1.7 | 2.6 | 0.00 | 0.00 | 0.00 | 48 | 1006.6 |
| 20260503214810 | 49 | 299 | 1.7 | 2.6 | 0.00 | 0.00 | 0.00 | 49 | 1006.6 |
| 20260503214306 | 49 | 345 | 0.9 | 0.9 | 0.00 | 0.00 | 0.00 | 45 | 1006.8 |